Regional Weather Roundup
Issued by NWS

Home | Current Version | Previous Version | Graphics & Text | Print | Product List | Glossary On
Versions: 1 2 3 4 5 6 7 8 9 10 11 12 13 14 15 16 17 18 19 20 21 22 23 24 25 26 27 28 29 30 31 32 33 34 35 36 37 38 39 40 41 42 43 44 45 46 47 48 49 50
000
ASUS45 KCYS 271610
RWRWY

WYOMING REGIONAL WEATHER ROUNDUP
NATIONAL WEATHER SERVICE CHEYENNE WY
1000 AM MDT THU AUG 27 2015

NOTE:  "FAIR" INDICATES FEW OR NO CLOUDS BELOW 12,000 FEET
WITH NO SIGNIFICANT WEATHER AND/OR OBSTRUCTIONS TO VISIBILITY.

WYZ001-271700-
YELLOWSTONE NATIONAL PARK

CITY           SKY/WX    TMP DP  RH WIND       PRES   REMARKS
LK YELLOWSTONE   N/A     52  46  80 VRB3      30.44R
W YELLOWSTONE  NOT AVBL

$$
WYZ002>013-054>058-071-098>099-271700-
NORTHERN WYOMING

CITY           SKY/WX    TMP DP  RH WIND       PRES   REMARKS
JACKSON        CLOUDY    54  54 100 CALM      30.38R
CODY           FAIR      70  52  52 S8        30.20F
GREYBULL       FAIR      67  58  72 SE5       30.16R
WORLAND        CLOUDY    66  60  81 CALM      30.18R
SHERIDAN       FAIR      73  53  49 S5        30.08F
BUFFALO        FAIR      72  51  47 S8        30.17F
GILLETTE       CLOUDY    66  58  75 S10       30.11F
HULETT         LGT RAIN  66  57  72 S8        30.13S
NEWCASTLE      FAIR      68  55  64 NW13      30.14R

$$
WYZ014>020-022>026-101>103-271700-
CENTRAL WYOMING

CITY           SKY/WX    TMP DP  RH WIND       PRES   REMARKS
BIG PINEY      FAIR      62  51  67 W3        30.37R
PINEDALE       FAIR      59  50  72 W8        30.37R
DUBOIS         FAIR      64  48  55 N10       30.32S
LANDER         FAIR      71  51  49 VRB3      30.22S
RIVERTON       FAIR      68  51  54 VRB5      30.24R
CASPER         CLOUDY    68  49  50 W7        30.22R
DOUGLAS        CLOUDY    71  48  43 NW13      30.19R

$$
WYZ021-027>030-104>119-271700-
SOUTHERN WYOMING

CITY           SKY/WX    TMP DP  RH WIND       PRES   REMARKS
EVANSTON       PTSUNNY   57  56  96 SW8       30.41R
KEMMERER       PTSUNNY   59  52  77 SW12      30.41S
FORT BRIDGER   SUNNY     64  57  77 W17       30.41S
ROCK SPRINGS   PTSUNNY   59  54  83 W20       30.35R
DIXON          CLOUDY    64  57  79 W10       30.34S
RAWLINS        CLOUDY    58  55  90 CALM      30.32R
SARATOGA       LGT RAIN  57  55  94 S3        30.34R
LARAMIE        LGT RAIN  56  53  90 N5        30.32R
CHEYENNE       FAIR      73  51  46 NW18G26   30.21R
TORRINGTON     LGT RAIN  70  59  68 W7        30.07R
PINE BLUFFS    PTSUNNY   73  48  40 NW16G23   30.14R

$$



USA.gov is the U.S. government's official web portal to all federal, state and local government web resources and services.